Showing default

SKYSAT C6, 42992

Orbit data source: Space-Track

SKYSAT C6, 42992 is a payload satellite owned by Terra Bella (US) in SSO that was launched on Tue, 31 Oct 2017 UTC via a MINOTAUR-C 3210 launch vehicle from the Air Force Western Test Range (AFWTR). Payloads include a variety of satellites, spacecraft, and rockets equipped with specific instruments for various scientific and technological missions. These include communications satellites like Starlink; space stations such as the ISS; scientific satellites like the Hubble; Earth observation satellites from companies like Planet Labs, Umbra, and HawkEye 360; GPS; miniature CubeSats for education and research; and military/defense satellites.

Loading next visibility...
SKYSAT C6 details
Identifier
42992, 2017-068F
Orbit
SSO
Last TLE update1 day ago
Origin
Flag of USTerra Bella (US)
ManufacturerMaxar SSL
MissionOperational Commercial Imaging
Bus & MotorSKYSAT-GEN2, Unknown motor
Mass110 kg wet, 110 kg dry
Launch date (UTC)
2017-10-31 (7 years ago)
Launch vehicle
MINOTAUR-C 3210
Launch site
Air Force Western Test Range (AFWTR)
Object type
Payload
Rocket body
Debris
Shape & HBRBox, 1.2 m
Radar Cross Section0.888 m², Medium (>0.1 m² and < 1m²)

Expand to show TLE details & history

TLE from 1 day ago
0 SKYSAT C6
1 42992U 17068F   24360.31276633  .00025059  00000-0  79611-3 0  9992
2 42992  97.3897 126.3986 0001396 151.3341 208.7978 15.32627659399854
Epoch: 2024-12-25T07:30Z
Definitive object data (Epoch: 2024-12-25T07:30:23.01Z)
Latitude-0.00005°
Longitude-80.50558°
Altitude471.922 km
Speed7.63 km/s
True Right ascension08h 25m 35s
True Declination0° 00' 00"
Sunlit
Object was in full shadow at TLE epoch
Visualization TLE readout
Latitude23.15674°
Longitude-82.55535°
Altitude471.329 km
Speed7.632 km/s
Apparent Right ascension05h 20m 15s
Apparent Declination-30° 35' 45"
Sunlit
Object is in full shadow
Visualization observer readout
Local Sidereal Time09:35:51
Azimuth230.67° WSW
Elevation-2.071°
Doppler factor1
Orbital elements
Apogee altitude465.88 km
Perigee altitude463.969 km
Semi-major axis6,843.061 km
Eccentricity0.0001396
Inclination97.3897°
RAAN126.3986°
Arg. of periapsis151.3341°
True anomaly208.7901°
Mean anomaly208.7978°
Eccentric anomaly208.79395°
Mean motion3.83414 °/min
BSTAR0.00079611
Orbital period93.89 mins
Loading maneuver chart data...
Loading historical data...
Loading historical data...
Loading historical data...
Loading historical data...
Loading historical data...
Loading historical data...
Loading historical data...

SKYSAT C6 Visibility forecast

Observer location: undefined°, undefined

Span
Click to sort rows by Start time (UTC) header in descending order
Start Az.
Max El. time (UTC)
Max El. Az.
Max El.
End time (UTC)
End Az.
6 mins2024-12-26 21:39:42.526Z5.792° NNE2024-12-26 21:42:42.526Z322.552° NNW40.852°2024-12-26 21:45:42.526Z203.979° SW
5 mins2024-12-27 08:13:42.526Z127.926° SE2024-12-27 08:15:42.526Z71.591° E29.594°2024-12-27 08:18:42.526Z7.555° NNE
|